^^
Saratoga-Weather Station Historical Data
Daily Summary for March 18, 2020 Units:  English    Metric   Both
Daily Weekly Monthly Yearly Custom
  High: Low: Average:
Temperature: 81.3 °F 53.4 °F 65.8 °F
Dew Point: 58.5 °F 45.1 °F 51.6 °F
Humidity: 76% 45% 61%
Wind Speed: 8.9mph 0mph 1.6mph
Wind Gust: 13mph - -
Wind- - ESE
Pressure: 30.2 in 30 in -
Precipitation: 0 in    
Historical Graphs
 
 
Tabular Data for March 18, 2020
Time Temperature Dew Point Pressure Wind Wind Speed Wind Gust Humidity Rainfall Rate (Hourly) solar
00:03 61.3 °F 46.4 °F 30.2 in ENE 0.9 mph 2 mph 58% 0 in 0 W/m2
00:08 61.2 °F 46.8 °F 30.2 in Calm   2 mph 59% 0 in 0 W/m2
00:13 60.8 °F 46.4 °F 30.2 in SE 0.9 mph 1 mph 59% 0 in 0 W/m2
00:18 60.6 °F 46.2 °F 30.2 in Calm   1 mph 59% 0 in 0 W/m2
00:23 60.4 °F 46.4 °F 30.2 in ESE 0.9 mph 2 mph 60% 0 in 0 W/m2
00:28 60.3 °F 46.8 °F 30.2 in ESE 0.9 mph 1 mph 61% 0 in 0 W/m2
00:33 60.1 °F 46.6 °F 30.2 in Calm   3 mph 61% 0 in 0 W/m2
00:38 59.7 °F 46.2 °F 30.2 in SE 2 mph 2 mph 61% 0 in 0 W/m2
00:43 59.7 °F 46.2 °F 30.2 in SE 0.9 mph 2 mph 61% 0 in 0 W/m2
00:48 59.5 °F 46 °F 30.2 in SE 0.9 mph 3 mph 61% 0 in 0 W/m2
00:53 59.4 °F 46.4 °F 30.2 in Calm   3 mph 62% 0 in 0 W/m2
00:58 59.4 °F 46.4 °F 30.2 in Calm   2 mph 62% 0 in 0 W/m2
01:03 59.2 °F 46.2 °F 30.2 in ESE 2 mph 3 mph 62% 0 in 0 W/m2
01:08 59.2 °F 46.2 °F 30.2 in ESE 0.9 mph 2 mph 62% 0 in 0 W/m2
01:13 59.2 °F 46.2 °F 30.2 in ESE 0.9 mph 2 mph 62% 0 in 0 W/m2
01:18 59 °F 46 °F 30.2 in SE 2 mph 3 mph 62% 0 in 0 W/m2
01:23 58.8 °F 45.9 °F 30.1 in SE 0.9 mph 2 mph 62% 0 in 0 W/m2
01:28 58.6 °F 45.7 °F 30.1 in ESE 2 mph 2 mph 62% 0 in 0 W/m2
01:33 58.6 °F 45.7 °F 30.1 in Calm   2 mph 62% 0 in 0 W/m2
01:38 58.5 °F 45.9 °F 30.1 in ESE 0.9 mph 1 mph 63% 0 in 0 W/m2
01:43 58.5 °F 45.9 °F 30.1 in ESE 0.9 mph 1 mph 63% 0 in 0 W/m2
01:48 58.1 °F 45.5 °F 30.1 in SE 0.9 mph 2 mph 63% 0 in 0 W/m2
01:53 57.9 °F 45.9 °F 30.1 in SE 0.9 mph 2 mph 64% 0 in 0 W/m2
01:58 57.7 °F 45.7 °F 30.1 in Calm   1 mph 64% 0 in 0 W/m2
02:03 57.6 °F 45.9 °F 30.1 in Calm   2 mph 65% 0 in 0 W/m2
02:08 57.4 °F 45.7 °F 30.1 in East 2 mph 2 mph 65% 0 in 0 W/m2
02:13 57.2 °F 45.5 °F 30.1 in Calm   3 mph 65% 0 in 0 W/m2
02:18 57.4 °F 45.7 °F 30.1 in East 4 mph 4 mph 65% 0 in 0 W/m2
02:23 57.4 °F 45.7 °F 30.1 in Calm   2 mph 65% 0 in 0 W/m2
02:28 57.6 °F 45.9 °F 30.1 in Calm   1 mph 65% 0 in 0 W/m2
02:33 57.4 °F 46 °F 30.1 in ESE 2.9 mph 3 mph 66% 0 in 0 W/m2
02:38 57.2 °F 45.5 °F 30.1 in ESE 0.9 mph 2 mph 65% 0 in 0 W/m2
02:43 57 °F 45.3 °F 30.1 in ESE 2 mph 2 mph 65% 0 in 0 W/m2
02:48 57 °F 45.3 °F 30.1 in Calm   3 mph 65% 0 in 0 W/m2
02:53 57.2 °F 45.5 °F 30.1 in ESE 0.9 mph 4 mph 65% 0 in 0 W/m2
02:58 57.2 °F 45.5 °F 30.1 in Calm   2 mph 65% 0 in 0 W/m2
03:03 57 °F 45.3 °F 30.1 in ESE 0.9 mph 4 mph 65% 0 in 0 W/m2
03:08 56.8 °F 45.1 °F 30.1 in SE 0.9 mph 2 mph 65% 0 in 0 W/m2
03:13 56.8 °F 45.1 °F 30.1 in ESE 0.9 mph 2 mph 65% 0 in 0 W/m2
03:18 56.8 °F 45.1 °F 30.1 in ESE 2 mph 2 mph 65% 0 in 0 W/m2
03:23 56.8 °F 45.7 °F 30.1 in SE 2 mph 2 mph 66% 0 in 0 W/m2
03:28 56.8 °F 45.7 °F 30.1 in SE 0.9 mph 3 mph 66% 0 in 0 W/m2
03:33 56.7 °F 45.5 °F 30.1 in SE 2 mph 2 mph 66% 0 in 0 W/m2
03:38 56.5 °F 45.7 °F 30.1 in ESE 2.9 mph 3 mph 67% 0 in 0 W/m2
03:43 56.1 °F 45.3 °F 30.1 in SSE 2 mph 2 mph 67% 0 in 0 W/m2
03:48 56.1 °F 45.7 °F 30.1 in Calm   1 mph 68% 0 in 0 W/m2
03:53 55.9 °F 45.5 °F 30.1 in Calm   1 mph 68% 0 in 0 W/m2
03:58 55.8 °F 45.3 °F 30.1 in SSE 2 mph 2 mph 68% 0 in 0 W/m2
04:03 55.6 °F 45.5 °F 30.1 in SSE 0.9 mph 1 mph 69% 0 in 0 W/m2
04:08 55.4 °F 45.3 °F 30.1 in Calm   2 mph 69% 0 in 0 W/m2
04:13 55.2 °F 45.1 °F 30.1 in Calm   1 mph 69% 0 in 0 W/m2
04:18 55.4 °F 45.3 °F 30.1 in East 2 mph 3 mph 69% 0 in 0 W/m2
04:23 55.4 °F 45.9 °F 30.1 in Calm   1 mph 70% 0 in 0 W/m2
04:28 55.2 °F 45.7 °F 30.1 in SE 0.9 mph 1 mph 70% 0 in 0 W/m2
04:33 55 °F 45.5 °F 30.1 in Calm     70% 0 in 0 W/m2
04:38 54.9 °F 45.7 °F 30.1 in Calm   1 mph 71% 0 in 0 W/m2
04:43 54.5 °F 45.3 °F 30.1 in SE 0.9 mph 1 mph 71% 0 in 0 W/m2
04:48 54.1 °F 45.3 °F 30.1 in Calm   1 mph 72% 0 in 0 W/m2
04:53 54 °F 45.5 °F 30.1 in SE 0.9 mph 2 mph 73% 0 in 0 W/m2
04:58 54 °F 45.5 °F 30.1 in ESE 2.9 mph 3 mph 73% 0 in 0 W/m2
05:03 54.1 °F 45.7 °F 30.1 in ESE 0.9 mph 2 mph 73% 0 in 0 W/m2
05:08 54.1 °F 45.7 °F 30.1 in ESE 2 mph 2 mph 73% 0 in 0 W/m2
05:13 54.1 °F 45.7 °F 30.1 in SSE 0.9 mph 2 mph 73% 0 in 0 W/m2
05:18 54.1 °F 45.7 °F 30.1 in East 0.9 mph 2 mph 73% 0 in 0 W/m2
05:23 54 °F 45.5 °F 30.1 in SE 0.9 mph 2 mph 73% 0 in 0 W/m2
05:28 54 °F 45.5 °F 30.1 in ESE 0.9 mph 2 mph 73% 0 in 0 W/m2
05:33 54.1 °F 45.7 °F 30.1 in Calm   1 mph 73% 0 in 0 W/m2
05:38 54 °F 45.9 °F 30.1 in ESE 0.9 mph 1 mph 74% 0 in 0 W/m2
05:43 54 °F 45.9 °F 30.1 in ESE 0.9 mph 2 mph 74% 0 in 0 W/m2
05:48 54 °F 45.9 °F 30.1 in ESE 0.9 mph 2 mph 74% 0 in 0 W/m2
05:53 53.8 °F 45.7 °F 30.1 in ESE 0.9 mph 1 mph 74% 0 in 0 W/m2
05:58 53.8 °F 45.7 °F 30.1 in Calm   3 mph 74% 0 in 0 W/m2
06:03 53.8 °F 46 °F 30.1 in East 0.9 mph 3 mph 75% 0 in 0 W/m2
06:08 53.8 °F 46 °F 30.1 in ESE 0.9 mph 2 mph 75% 0 in 0 W/m2
06:13 53.8 °F 46 °F 30.1 in Calm   1 mph 75% 0 in 0 W/m2
06:18 53.6 °F 45.9 °F 30.1 in Calm   1 mph 75% 0 in 0 W/m2
06:23 53.4 °F 45.7 °F 30.1 in Calm   1 mph 75% 0 in 0 W/m2
06:28 53.4 °F 46 °F 30.1 in ESE 0.9 mph 2 mph 76% 0 in 0 W/m2
06:33 53.4 °F 46 °F 30.1 in SSE 0.9 mph 2 mph 76% 0 in 0 W/m2
06:38 53.4 °F 46 °F 30.1 in Calm   2 mph 76% 0 in 0 W/m2
06:43 53.4 °F 46 °F 30.1 in SE 0.9 mph 2 mph 76% 0 in 0 W/m2
06:48 53.4 °F 46 °F 30.1 in SE 0.9 mph 1 mph 76% 0 in 0 W/m2
06:53 53.4 °F 46 °F 30.1 in ESE 0.9 mph 2 mph 76% 0 in 0 W/m2
06:58 53.4 °F 46 °F 30.1 in Calm   2 mph 76% 0 in 0 W/m2
07:03 53.4 °F 46 °F 30.1 in SSE 0.9 mph 2 mph 76% 0 in 0 W/m2
07:08 53.4 °F 46 °F 30.1 in SSE 0.9 mph 2 mph 76% 0 in 0 W/m2
07:13 53.6 °F 46.2 °F 30.1 in Calm   2 mph 76% 0 in 0 W/m2
07:18 53.6 °F 46.2 °F 30.1 in Calm   2 mph 76% 0 in 0 W/m2
07:23 53.8 °F 46.4 °F 30.1 in SSE 0.9 mph 2 mph 76% 0 in 5 W/m2
07:28 53.8 °F 46.4 °F 30.1 in SSE 0.9 mph 2 mph 76% 0 in 9 W/m2
07:33 53.8 °F 46.4 °F 30.1 in Calm   1 mph 76% 0 in 12 W/m2
07:38 53.8 °F 46.4 °F 30.1 in Calm     76% 0 in 14 W/m2
07:43 53.8 °F 46.4 °F 30.1 in Calm     76% 0 in 16 W/m2
07:49 53.6 °F 46.2 °F 30.1 in Calm     76% 0 in 19 W/m2
07:54 53.6 °F 46.2 °F 30.1 in Calm     76% 0 in 21 W/m2
07:59 53.8 °F 46.4 °F 30.1 in Calm   1 mph 76% 0 in 25 W/m2
08:04 53.8 °F 46.4 °F 30.1 in Calm   2 mph 76% 0 in 26 W/m2
08:09 54 °F 46.6 °F 30.1 in NE 0.9 mph 2 mph 76% 0 in 28 W/m2
08:14 54.1 °F 46.8 °F 30.1 in Calm   1 mph 76% 0 in 30 W/m2
08:19 54.1 °F 46.4 °F 30.1 in NE 0.9 mph 2 mph 75% 0 in 32 W/m2
08:24 54.1 °F 46.4 °F 30.1 in NE 2 mph 2 mph 75% 0 in 33 W/m2
08:29 54.3 °F 46.6 °F 30.1 in North 2 mph 2 mph 75% 0 in 69 W/m2
08:34 54.5 °F 46.8 °F 30.1 in NE 2 mph 3 mph 75% 0 in 91 W/m2
08:39 54.7 °F 46.9 °F 30.1 in Calm   2 mph 75% 0 in 90 W/m2
08:44 54.9 °F 47.1 °F 30.1 in Calm   1 mph 75% 0 in 40 W/m2
08:49 55 °F 47.3 °F 30.1 in Calm   1 mph 75% 0 in 42 W/m2
08:54 55.2 °F 47.1 °F 30.1 in East 2 mph 3 mph 74% 0 in 76 W/m2
08:59 55.4 °F 47.3 °F 30.1 in NNE 0.9 mph 2 mph 74% 0 in 116 W/m2
09:04 55.8 °F 47.7 °F 30.1 in SE 0.9 mph 2 mph 74% 0 in 172 W/m2
09:09 55.9 °F 47.5 °F 30.1 in NNE 0.9 mph 2 mph 73% 0 in 181 W/m2
09:33 58.3 °F 48.6 °F 30.1 in Calm   4 mph 70% 0 in 53 W/m2
09:38 58.6 °F 48.9 °F 30.1 in ENE 0.9 mph 3 mph 70% 0 in 53 W/m2
09:43 59.2 °F 48.6 °F 30.1 in ESE 2 mph 5 mph 68% 0 in 54 W/m2
09:48 59.5 °F 48.9 °F 30.1 in NNE 2 mph 5 mph 68% 0 in 54 W/m2
09:53 60.1 °F 49.5 °F 30.1 in Calm   1 mph 68% 0 in 56 W/m2
09:58 60.4 °F 49.1 °F 30.1 in ENE 4.9 mph 5 mph 66% 0 in 56 W/m2
10:03 61 °F 50 °F 30.1 in NE 4 mph 4 mph 67% 0 in 58 W/m2
10:08 61.3 °F 49.8 °F 30.1 in NE 0.9 mph 3 mph 66% 0 in 58 W/m2
10:13 61.9 °F 50.4 °F 30.1 in ESE 4 mph 8 mph 66% 0 in 60 W/m2
10:18 62.1 °F 50.2 °F 30.1 in ESE 2.9 mph 7 mph 65% 0 in 60 W/m2
10:23 62.2 °F 50.4 °F 30.1 in NE 2 mph 8 mph 65% 0 in 62 W/m2
10:28 62.8 °F 50.9 °F 30.1 in NE 4.9 mph 5 mph 65% 0 in 62 W/m2
10:33 63.1 °F 51.3 °F 30.1 in NNW 2 mph 7 mph 65% 0 in 63 W/m2
10:38 63.3 °F 51.4 °F 30.1 in East 2 mph 4 mph 65% 0 in 65 W/m2
10:43 63.7 °F 51.3 °F 30.1 in NNE 2.9 mph 4 mph 64% 0 in 65 W/m2
10:48 64.2 °F 51.8 °F 30.1 in NNE 2.9 mph 7 mph 64% 0 in 65 W/m2
10:53 64.8 °F 52.7 °F 30.1 in Calm   3 mph 65% 0 in 67 W/m2
10:58 65.7 °F 53.2 °F 30.1 in NE 2 mph 4 mph 64% 0 in 69 W/m2
11:03 66 °F 52.7 °F 30.1 in NNE 8.9 mph 9 mph 62% 0 in 69 W/m2
11:08 66.4 °F 52.9 °F 30.1 in ENE 2.9 mph 6 mph 62% 0 in 72 W/m2
11:13 66.7 °F 53.2 °F 30.1 in ENE 4 mph 6 mph 62% 0 in 74 W/m2
11:18 67.3 °F 53.4 °F 30.1 in NNE 2 mph 8 mph 61% 0 in 76 W/m2
11:23 67.5 °F 53.6 °F 30.1 in ENE 2.9 mph 9 mph 61% 0 in 79 W/m2
11:28 67.8 °F 53.4 °F 30.1 in East 6 mph 7 mph 60% 0 in 81 W/m2
11:33 68.2 °F 53.8 °F 30.1 in East 6.9 mph 9 mph 60% 0 in 81 W/m2
11:38 68.4 °F 53.4 °F 30.1 in South 2 mph 8 mph 59% 0 in 102 W/m2
11:43 68.5 °F 53.6 °F 30.1 in East 2.9 mph 4 mph 59% 0 in 420 W/m2
11:48 68.9 °F 53.6 °F 30.1 in East 2.9 mph 9 mph 58% 0 in 548 W/m2
11:53 69.1 °F 53.6 °F 30.1 in SE 6 mph 9 mph 58% 0 in 559 W/m2
11:58 69.4 °F 54 °F 30.1 in NNE 2 mph 9 mph 58% 0 in 566 W/m2
12:03 70 °F 54 °F 30.1 in ENE 4 mph 9 mph 57% 0 in 575 W/m2
12:08 70.2 °F 54.1 °F 30.1 in ENE 8.1 mph 8 mph 57% 0 in 584 W/m2
12:13 70.3 °F 54 °F 30.1 in NNE 2 mph 9 mph 56% 0 in 591 W/m2
12:18 70.9 °F 54.3 °F 30.1 in SSE 2 mph 6 mph 56% 0 in 592 W/m2
12:23 71.2 °F 54.7 °F 30.1 in East 2 mph 8 mph 56% 0 in 603 W/m2
12:28 71.8 °F 55.2 °F 30.1 in East 6.9 mph 9 mph 56% 0 in 608 W/m2
12:33 72.1 °F 55 °F 30.1 in North 0.9 mph 8 mph 55% 0 in 606 W/m2
12:38 72.7 °F 55.6 °F 30.1 in NE 6.9 mph 11 mph 55% 0 in 617 W/m2
12:43 72.9 °F 55.2 °F 30.1 in East 2.9 mph 8 mph 54% 0 in 622 W/m2
12:48 73 °F 55.4 °F 30.1 in ESE 2.9 mph 7 mph 54% 0 in 628 W/m2
12:53 73 °F 54.9 °F 30.1 in NE 2 mph 8 mph 53% 0 in 629 W/m2
12:58 73.2 °F 55.6 °F 30.1 in NNE 4 mph 7 mph 54% 0 in 633 W/m2
13:03 73.8 °F 55.6 °F 30.1 in NE 2.9 mph 10 mph 53% 0 in 633 W/m2
13:08 73.9 °F 55.8 °F 30.1 in ESE 2 mph 7 mph 53% 0 in 638 W/m2
13:13 74.1 °F 55.4 °F 30.1 in East 4.9 mph 11 mph 52% 0 in 636 W/m2
13:18 74.3 °F 55.6 °F 30.1 in East 2 mph 6 mph 52% 0 in 638 W/m2
13:23 74.7 °F 55.9 °F 30.1 in East 2 mph 11 mph 52% 0 in 633 W/m2
13:28 75 °F 55.6 °F 30.1 in North 0.9 mph 5 mph 51% 0 in 633 W/m2
13:33 75 °F 55 °F 30.1 in ESE 2.9 mph 9 mph 50% 0 in 635 W/m2
13:38 75.2 °F 55.8 °F 30.1 in East 2 mph 5 mph 51% 0 in 631 W/m2
13:43 75.7 °F 56.3 °F 30.1 in SE 0.9 mph 9 mph 51% 0 in 635 W/m2
13:48 76.1 °F 56.1 °F 30.1 in ENE 0.9 mph 7 mph 50% 0 in 633 W/m2
13:53 76.5 °F 56.5 °F 30.1 in ESE 2 mph 4 mph 50% 0 in 635 W/m2
13:59 76.8 °F 56.3 °F 30.1 in ENE 0.9 mph 7 mph 49% 0 in 633 W/m2
14:04 76.8 °F 56.3 °F 30.1 in NNE 0.9 mph 5 mph 49% 0 in 635 W/m2
14:09 76.8 °F 56.3 °F 30.1 in East 2 mph 7 mph 49% 0 in 628 W/m2
14:14 76.8 °F 56.3 °F 30.1 in NE 0.9 mph 5 mph 49% 0 in 622 W/m2
14:19 77.2 °F 56.5 °F 30.1 in ESE 2.9 mph 4 mph 49% 0 in 617 W/m2
14:24 77.2 °F 55.9 °F 30.1 in NE 6 mph 13 mph 48% 0 in 615 W/m2
14:29 77.2 °F 56.5 °F 30.1 in SSE 6 mph 9 mph 49% 0 in 610 W/m2
14:34 77.2 °F 57 °F 30.1 in ENE 4 mph 5 mph 50% 0 in 603 W/m2
14:39 77.5 °F 56.8 °F 30.1 in ENE 4 mph 7 mph 49% 0 in 599 W/m2
14:44 77.7 °F 56.5 °F 30.1 in SSE 8.9 mph 10 mph 48% 0 in 589 W/m2
14:49 77.7 °F 57 °F 30.1 in SSE 4 mph 11 mph 49% 0 in 585 W/m2
14:54 78.1 °F 57.4 °F 30.1 in ENE 2 mph 6 mph 49% 0 in 582 W/m2
14:59 78.4 °F 57.2 °F 30.1 in NE 4 mph 5 mph 48% 0 in 580 W/m2
15:04 78.4 °F 57.2 °F 30.1 in South 0.9 mph 4 mph 48% 0 in 575 W/m2
15:09 78.8 °F 57.4 °F 30.1 in East 4 mph 9 mph 48% 0 in 570 W/m2
15:14 78.8 °F 56.8 °F 30.1 in ENE 2.9 mph 11 mph 47% 0 in 564 W/m2
15:19 79 °F 57.6 °F 30.1 in ENE 2 mph 7 mph 48% 0 in 554 W/m2
15:24 79.2 °F 57.2 °F 30.1 in ESE 2 mph 11 mph 47% 0 in 547 W/m2
15:29 79.7 °F 57.7 °F 30.1 in ESE 4.9 mph 5 mph 47% 0 in 538 W/m2
15:34 80.1 °F 58.1 °F 30.1 in SSE 2 mph 7 mph 47% 0 in 533 W/m2
15:39 80.2 °F 57.6 °F 30.1 in NE 2.9 mph 6 mph 46% 0 in 529 W/m2
15:44 80.2 °F 57.6 °F 30.1 in NNW 0.9 mph 9 mph 46% 0 in 520 W/m2
15:49 80.2 °F 57.6 °F 30.1 in ENE 2 mph 7 mph 46% 0 in 513 W/m2
15:54 80.4 °F 57.7 °F 30.1 in Calm   9 mph 46% 0 in 506 W/m2
15:59 81 °F 58.3 °F 30.1 in Calm   7 mph 46% 0 in 501 W/m2
16:04 81.1 °F 57.7 °F 30.1 in ENE 2 mph 5 mph 45% 0 in 499 W/m2
16:09 81.1 °F 57.7 °F 30.1 in NE 2.9 mph 8 mph 45% 0 in 497 W/m2
16:14 81.1 °F 57.7 °F 30.1 in SE 4 mph 7 mph 45% 0 in 487 W/m2
16:20 81.1 °F 58.5 °F 30.1 in North 2 mph 10 mph 46% 0 in 485 W/m2
16:25 81.3 °F 57.9 °F 30.1 in North 4 mph 8 mph 45% 0 in 480 W/m2
16:30 81.1 °F 57.7 °F 30.1 in ESE 4 mph 6 mph 45% 0 in 469 W/m2
16:35 81.3 °F 57.9 °F 30.1 in ENE 2.9 mph 8 mph 45% 0 in 452 W/m2
16:40 81.1 °F 57.7 °F 30.1 in ENE 0.9 mph 6 mph 45% 0 in 436 W/m2
16:45 81.1 °F 57.7 °F 30.1 in East 0.9 mph 4 mph 45% 0 in 415 W/m2
16:50 81.1 °F 57.7 °F 30.1 in East 2.9 mph 6 mph 45% 0 in 404 W/m2
16:55 81.1 °F 57.7 °F 30.1 in ESE 2 mph 3 mph 45% 0 in 387 W/m2
17:00 81.1 °F 57.7 °F 30.1 in East 2 mph 4 mph 45% 0 in 371 W/m2
17:05 81.1 °F 57.7 °F 30.1 in East 4.9 mph 9 mph 45% 0 in 362 W/m2
17:10 80.8 °F 57.4 °F 30 in East 2.9 mph 6 mph 45% 0 in 350 W/m2
17:15 80.8 °F 58.1 °F 30 in East 0.9 mph 4 mph 46% 0 in 336 W/m2
17:20 80.8 °F 58.1 °F 30.1 in East 2.9 mph 4 mph 46% 0 in 329 W/m2
17:25 80.8 °F 58.1 °F 30.1 in ENE 2.9 mph 7 mph 46% 0 in 306 W/m2
17:30 80.8 °F 57.4 °F 30 in East 2.9 mph 4 mph 45% 0 in 285 W/m2
17:35 80.4 °F 57.2 °F 30 in ESE 6 mph 6 mph 45% 0 in 290 W/m2
17:40 80.2 °F 57.6 °F 30 in ENE 2 mph 4 mph 46% 0 in 279 W/m2
17:45 80.2 °F 57.6 °F 30 in ESE 4 mph 8 mph 46% 0 in 269 W/m2
17:50 80.1 °F 57.4 °F 30 in NNE 2 mph 6 mph 46% 0 in 251 W/m2
17:55 79.9 °F 57.9 °F 30 in NNW 2 mph 5 mph 47% 0 in 241 W/m2
18:00 79.9 °F 57.2 °F 30 in ESE 2 mph 6 mph 46% 0 in 121 W/m2
18:05 79.7 °F 57.7 °F 30 in SSE 0.9 mph 4 mph 47% 0 in 211 W/m2
18:10 79.3 °F 57.4 °F 30 in ESE 0.9 mph 7 mph 47% 0 in 200 W/m2
18:15 79 °F 57 °F 30 in East 4 mph 8 mph 47% 0 in 181 W/m2
18:20 79 °F 57 °F 30 in NE 2 mph 4 mph 47% 0 in 167 W/m2
18:25 79 °F 57.6 °F 30 in SSE 2 mph 8 mph 48% 0 in 155 W/m2
18:30 78.4 °F 56.5 °F 30 in East 2 mph 4 mph 47% 0 in 141 W/m2
18:35 78.3 °F 57 °F 30 in ENE 2 mph 4 mph 48% 0 in 123 W/m2
18:40 78.1 °F 56.8 °F 30 in East 4 mph 10 mph 48% 0 in 109 W/m2
18:45 77.5 °F 56.3 °F 30 in East 2 mph 4 mph 48% 0 in 60 W/m2
18:50 77.2 °F 56.5 °F 30 in Calm   10 mph 49% 0 in 40 W/m2
18:55 76.6 °F 56.7 °F 30 in East 2 mph 6 mph 50% 0 in 37 W/m2
19:00 76.3 °F 56.8 °F 30 in East 2.9 mph 4 mph 51% 0 in 33 W/m2
19:05 75.9 °F 56.5 °F 30 in East 0.9 mph 6 mph 51% 0 in 30 W/m2
19:10 75.6 °F 56.7 °F 30 in East 4 mph 4 mph 52% 0 in 25 W/m2
19:15 75.4 °F 56.5 °F 30 in East 0.9 mph 3 mph 52% 0 in 19 W/m2
19:20 75 °F 56.1 °F 30 in Calm   3 mph 52% 0 in 14 W/m2
19:25 74.8 °F 56.5 °F 30 in East 0.9 mph 2 mph 53% 0 in 12 W/m2
19:30 74.5 °F 56.7 °F 30 in East 0.9 mph 1 mph 54% 0 in 9 W/m2
19:35 73.9 °F 56.3 °F 30 in ENE 0.9 mph 4 mph 54% 0 in 7 W/m2
19:40 73.6 °F 56.5 °F 30 in SE 0.9 mph 3 mph 55% 0 in 0 W/m2
19:45 73.2 °F 56.7 °F 30.1 in East 0.9 mph 2 mph 56% 0 in 0 W/m2
19:50 72.9 °F 56.3 °F 30.1 in Calm   1 mph 56% 0 in 0 W/m2
19:55 72.3 °F 56.3 °F 30 in Calm     57% 0 in 0 W/m2
20:00 72 °F 56.3 °F 30 in Calm     58% 0 in 0 W/m2
20:05 71.4 °F 56.3 °F 30 in East 2 mph 2 mph 59% 0 in 0 W/m2
20:10 71.1 °F 55.9 °F 30.1 in Calm   1 mph 59% 0 in 0 W/m2
20:15 70.9 °F 55.8 °F 30.1 in ESE 2.9 mph 3 mph 59% 0 in 0 W/m2
20:20 70.7 °F 55.2 °F 30.1 in East 6 mph 7 mph 58% 0 in 0 W/m2
20:25 71.1 °F 55.6 °F 30.1 in ENE 0.9 mph 2 mph 58% 0 in 0 W/m2
20:30 71.1 °F 55.6 °F 30.1 in ENE 0.9 mph 4 mph 58% 0 in 0 W/m2
20:35 71.1 °F 55.6 °F 30 in ENE 2 mph 5 mph 58% 0 in 0 W/m2
20:40 71.1 °F 55.6 °F 30 in East 2 mph 2 mph 58% 0 in 0 W/m2
20:45 70.7 °F 55.2 °F 30.1 in SSE 0.9 mph 2 mph 58% 0 in 0 W/m2
20:50 70.3 °F 54.9 °F 30.1 in SSE 0.9 mph 2 mph 58% 0 in 0 W/m2
20:55 70 °F 55 °F 30.1 in Calm     59% 0 in 0 W/m2
21:00 69.6 °F 54.7 °F 30.1 in SSE 0.9 mph 4 mph 59% 0 in 0 W/m2
21:05 69.4 °F 54.9 °F 30.1 in SSE 0.9 mph 1 mph 60% 0 in 0 W/m2
21:10 69.3 °F 54.9 °F 30.1 in ENE 2.9 mph 3 mph 60% 0 in 0 W/m2
21:15 68.9 °F 54.9 °F 30.1 in East 0.9 mph 2 mph 61% 0 in 0 W/m2
21:20 68.5 °F 54.5 °F 30.1 in Calm   1 mph 61% 0 in 0 W/m2
21:25 68.4 °F 54.9 °F 30.1 in NE 0.9 mph 4 mph 62% 0 in 0 W/m2
21:30 68.2 °F 54.7 °F 30.1 in Calm   1 mph 62% 0 in 0 W/m2
21:35 68 °F 54.5 °F 30.1 in Calm   1 mph 62% 0 in 0 W/m2
21:40 67.8 °F 54.3 °F 30.1 in Calm   1 mph 62% 0 in 0 W/m2
21:45 67.6 °F 54.7 °F 30.1 in Calm     63% 0 in 0 W/m2
21:50 67.3 °F 54.3 °F 30.1 in Calm   1 mph 63% 0 in 0 W/m2
21:55 67.3 °F 54.3 °F 30.1 in Calm   4 mph 63% 0 in 0 W/m2
22:00 67.3 °F 54.3 °F 30.1 in Calm   1 mph 63% 0 in 0 W/m2
22:05 67.3 °F 54.3 °F 30.1 in Calm   1 mph 63% 0 in 0 W/m2
22:10 66.9 °F 54.3 °F 30.1 in Calm     64% 0 in 0 W/m2
22:15 66.7 °F 54.1 °F 30.1 in SSW 0.9 mph 2 mph 64% 0 in 0 W/m2
22:20 66.7 °F 54.1 °F 30.1 in Calm     64% 0 in 0 W/m2
22:25 66.6 °F 54.5 °F 30.1 in Calm   1 mph 65% 0 in 0 W/m2
22:30 66.4 °F 54.3 °F 30.1 in Calm   1 mph 65% 0 in 0 W/m2
22:35 66 °F 54 °F 30.1 in East 0.9 mph 1 mph 65% 0 in 0 W/m2
22:40 65.8 °F 53.8 °F 30.1 in Calm     65% 0 in 0 W/m2
22:45 65.7 °F 54 °F 30.1 in Calm     66% 0 in 0 W/m2
22:50 65.5 °F 53.8 °F 30.1 in Calm   2 mph 66% 0 in 0 W/m2
22:56 65.1 °F 53.4 °F 30.1 in Calm     66% 0 in 0 W/m2
23:01 64.9 °F 53.8 °F 30.1 in Calm   2 mph 67% 0 in 0 W/m2
23:06 64.8 °F 53.6 °F 30.1 in Calm     67% 0 in 0 W/m2
23:11 64.6 °F 53.4 °F 30.1 in Calm     67% 0 in 0 W/m2
23:16 64.2 °F 53.4 °F 30.1 in Calm     68% 0 in 0 W/m2
23:21 64 °F 53.2 °F 30.1 in Calm     68% 0 in 0 W/m2
23:26 63.9 °F 53.4 °F 30.1 in Calm     69% 0 in 0 W/m2
23:31 63.7 °F 53.2 °F 30.1 in Calm     69% 0 in 0 W/m2
23:36 63.3 °F 53.1 °F 30.1 in Calm     69% 0 in 0 W/m2
23:41 63.3 °F 53.4 °F 30.1 in Calm     70% 0 in 0 W/m2
23:46 63.1 °F 53.2 °F 30.1 in Calm     70% 0 in 0 W/m2
23:51 63 °F 53.4 °F 30.1 in Calm   1 mph 71% 0 in 0 W/m2
23:56 62.6 °F 53.1 °F 30.1 in Calm   1 mph 71% 0 in 0 W/m2
Juneau County Weather
Compliments of Weather Underground - 4 mb